Theta_e
298 297 296 296 298 297 297 298 299 300 301 301 300 302 309 312 309 306 305 307 308 310 313 313 314 316 312 309 310 312 313 313 312 311 309 309 310 309 310 310 310 310 309 308 308 310 312 313 313 315 316 314 313 313 314 313 310 312 313 313 316 321 320 315 309 308 309 308 307 305 305 306 308 309 307 308 312 316 317 317 317 314 311 312 313 313 315
298 297 296 297 298 297 297 298 299 300 300 300 301 305 310 309 307 308 306 306 308 310 311 311 313 315 314 313 312 310 311 312 311 310 309 308 308 310 311 309 307 308 308 308 308 308 311 312 311 314 315 313 312 313 314 316 317 316 315 317 319 318 318 315 311 309 309 309 309 308 307 308 309 308 307 307 309 314 317 316 316 315 312 313 314 313 315
298 297 296 297 298 298 297 298 299 301 300 300 302 304 306 307 307 310 308 305 307 309 308 307 309 312 314 313 310 309 310 310 308 308 308 305 305 308 309 306 306 307 308 309 309 307 309 312 311 311 312 311 310 309 310 317 321 320 318 320 318 315 315 315 313 311 311 310 310 310 310 310 309 307 307 307 308 314 316 313 313 313 312 312 312 314 316
297 296 296 297 298 298 298 298 299 301 301 301 301 301 304 308 308 308 310 308 307 307 306 305 306 308 310 310 307 306 309 308 306 306 307 305 304 304 304 303 306 309 310 312 311 308 307 310 310 310 310 310 308 307 309 313 318 321 323 321 320 318 313 311 311 311 310 308 307 307 309 310 309 307 308 308 308 312 316 313 312 313 312 312 312 315 318
297 296 295 297 298 299 298 297 298 300 302 302 301 301 303 307 305 304 307 308 307 307 306 305 305 306 306 306 305 304 305 306 306 306 306 304 304 304 302 302 305 309 312 315 313 308 308 309 309 308 307 308 309 307 306 308 313 319 319 319 325 324 315 310 310 308 306 306 306 306 307 308 309 309 310 311 311 314 316 314 313 313 312 313 314 316 318
297 296 295 296 298 299 298 297 298 300 301 302 303 303 303 303 303 301 302 304 305 306 306 305 306 306 305 304 304 304 304 304 305 305 305 304 303 305 305 302 302 303 307 313 313 309 310 309 308 308 306 307 310 309 307 306 309 313 312 313 323 326 318 313 311 308 307 308 308 308 309 308 307 308 309 310 313 317 316 313 311 313 313 314 314 314 314
296 296 295 296 298 299 298 297 297 299 301 301 303 303 302 302 303 302 303 303 303 304 305 305 305 307 307 305 303 303 303 303 302 301 305 307 303 304 306 303 300 300 303 309 309 307 309 308 306 307 307 308 310 310 310 308 306 309 313 312 317 321 316 312 312 310 310 311 310 310 310 310 309 308 308 307 309 311 311 309 308 310 312 312 312 312 310
296 296 295 296 297 298 298 297 297 298 300 301 301 301 301 301 301 302 304 303 302 303 304 305 306 307 306 305 304 303 302 303 301 299 303 308 304 302 304 303 301 301 302 305 305 303 305 307 305 306 308 309 308 306 308 307 304 308 313 313 314 317 314 313 314 313 312 312 313 313 313 312 311 310 311 311 311 311 310 309 309 310 310 309 310 311 308
296 295 295 296 297 298 298 298 297 298 299 300 300 299 299 299 297 298 301 301 300 302 304 305 306 306 305 305 304 303 302 302 302 300 299 302 302 301 303 303 302 301 302 303 302 300 301 303 303 303 305 306 305 304 305 305 305 307 309 311 315 316 313 311 313 313 311 310 311 313 314 312 311 312 314 315 315 313 310 306 306 309 310 310 312 312 307
296 296 295 296 297 298 298 298 297 297 298 298 299 299 298 299 298 297 300 301 299 299 301 303 305 305 304 305 304 304 303 302 302 303 300 300 300 299 300 303 303 303 303 303 301 299 299 300 300 301 302 301 302 304 303 302 304 306 307 309 313 313 311 310 312 313 310 308 309 312 313 313 312 312 309 309 309 308 307 305 303 304 307 310 312 309 305
296 296 295 295 297 297 298 298 297 297 297 297 298 298 297 298 299 298 302 303 298 297 299 300 302 302 302 303 304 304 304 303 303 303 302 300 300 299 300 303 305 304 302 300 299 298 298 299 299 300 300 301 301 302 302 302 302 302 304 308 310 311 311 310 311 312 309 306 308 311 312 313 311 305 303 305 305 305 306 305 302 302 303 305 306 304 302
296 296 295 295 296 297 298 298 297 297 297 297 297 297 297 297 297 300 304 303 298 297 299 298 298 299 299 301 302 302 303 303 303 303 303 302 301 300 299 301 304 304 301 298 297 298 299 300 301 302 301 303 303 302 303 305 303 301 303 306 309 309 309 307 307 308 307 306 308 311 312 310 306 302 302 303 303 303 303 302 300 301 302 303 302 301 300
296 296 296 295 296 297 298 297 297 297 297 297 297 296 297 297 297 300 303 301 297 297 298 298 297 297 298 299 300 301 300 301 302 303 303 302 302 301 300 299 300 301 299 297 298 301 304 305 306 305 304 306 308 305 303 303 304 304 305 307 309 310 308 306 304 304 306 306 308 310 309 305 302 302 302 302 303 303 304 303 301 300 301 302 301 300 299
296 296 296 295 295 297 298 298 297 296 297 297 297 297 297 297 299 302 302 300 297 296 297 298 297 298 299 298 298 300 300 300 302 304 302 302 302 301 299 299 299 298 297 298 302 305 305 307 308 306 304 305 309 308 305 303 302 303 305 307 309 310 308 307 305 303 305 307 306 305 305 305 304 303 302 302 303 303 304 304 301 298 299 300 300 300 299
296 296 296 295 295 296 297 298 297 296 296 297 297 297 297 297 299 300 300 301 301 297 297 298 296 297 299 298 297 300 301 300 302 303 302 301 301 300 298 298 298 297 298 301 305 306 304 305 307 306 304 305 306 305 305 304 302 301 302 304 307 309 310 311 308 304 304 307 307 305 307 308 306 303 302 301 301 300 301 303 301 298 297 298 300 300 300
296 296 296 295 295 296 297 298 297 297 296 297 297 298 297 297 297 297 297 301 302 299 297 296 295 297 299 298 297 298 299 299 300 302 302 301 300 299 298 298 298 298 299 303 305 306 306 304 303 303 303 303 303 303 303 304 303 302 301 303 305 307 308 309 308 305 304 308 309 308 309 307 303 301 301 300 299 299 302 304 303 299 296 297 299 299 299
296 296 295 295 294 295 296 297 298 297 296 296 297 298 297 297 297 296 297 300 300 298 297 296 296 298 299 299 298 297 298 298 298 299 301 300 298 298 298 298 298 298 300 304 305 304 304 303 302 302 302 300 301 302 303 303 303 303 303 303 304 305 304 305 306 305 304 307 308 306 305 303 301 300 300 299 298 299 304 307 304 298 296 297 298 298 298
296 296 295 294 294 294 296 297 297 297 297 296 297 298 298 298 298 296 298 301 300 298 297 295 296 298 297 296 298 298 297 298 298 298 299 298 297 297 297 297 298 299 300 303 304 302 301 301 301 301 300 299 300 302 302 302 302 302 301 302 303 303 302 301 303 303 302 305 307 304 303 301 300 300 299 297 298 302 305 305 301 297 297 297 297 298 298
295 296 295 295 294 294 295 296 297 298 297 296 297 298 298 298 298 296 298 302 301 298 296 294 295 297 296 295 298 297 296 297 298 298 299 299 297 296 295 296 297 298 299 300 300 299 299 299 299 299 300 300 300 300 300 300 300 300 300 301 301 301 301 301 301 301 300 302 304 304 303 300 298 298 298 298 302 305 303 299 297 297 297 297 297 298 298
295 295 295 295 294 294 294 296 297 297 298 296 296 297 298 298 298 297 297 301 302 299 297 296 295 295 295 296 298 297 296 297 298 297 298 298 297 296 297 298 297 297 298 299 299 298 297 298 298 298 299 299 299 300 299 298 298 298 299 300 300 300 301 301 301 300 300 301 303 305 303 300 297 299 300 300 302 302 298 296 297 297 297 297 297 297 297
295 295 295 295 294 293 294 295 296 297 298 296 295 297 298 298 298 298 296 299 302 301 297 296 295 295 295 296 297 297 297 297 297 297 297 298 296 297 299 299 297 297 298 298 298 297 297 297 298 298 298 298 298 299 298 298 298 297 297 299 299 299 300 301 300 300 301 303 303 302 300 298 297 299 300 299 299 298 297 298 298 297 297 298 298 297 296
295 295 295 295 294 293 293 294 295 297 298 296 295 296 298 298 298 298 296 296 299 299 296 296 296 295 295 296 295 296 297 297 297 296 297 298 297 297 298 298 297 297 297 296 297 298 297 297 298 298 298 298 298 297 297 297 298 298 297 298 299 299 299 300 300 299 300 301 300 298 298 298 298 299 299 298 298 298 299 299 298 297 298 298 297 297 296
295 295 294 294 294 294 294 294 295 297 297 296 294 295 296 297 298 298 297 296 297 297 295 296 297 297 297 297 296 295 296 297 297 296 297 299 298 296 297 298 297 296 296 297 297 298 298 297 297 297 298 297 296 297 297 297 297 297 297 297 298 297 297 299 300 299 298 299 298 297 298 298 297 298 298 298 298 298 299 299 298 296 296 296 296 296 295
295 295 294 293 293 294 294 294 295 297 297 296 294 294 295 297 297 298 298 298 299 299 297 298 299 299 298 297 296 295 296 297 297 297 297 298 298 297 296 297 297 297 299 297 295 295 297 296 295 296 297 297 296 296 297 297 297 297 296 296 297 296 295 298 300 298 298 299 299 297 297 297 297 297 297 297 297 297 297 298 297 295 295 295 295 295 294
295 295 294 293 293 294 294 295 295 296 297 296 294 293 294 295 296 298 299 298 300 301 300 299 300 298 296 296 296 295 296 296 297 297 297 297 298 298 298 296 295 297 298 296 294 295 297 296 295 296 297 296 296 296 296 296 297 296 296 297 297 296 297 298 298 297 297 298 298 296 296 296 296 296 297 297 297 296 295 295 295 295 295 294 294 294 294
295 295 294 294 293 294 294 295 295 296 297 297 295 293 294 293 294 296 298 297 297 299 300 299 300 298 295 296 297 296 295 296 296 296 296 296 296 297 297 296 296 296 295 295 296 297 297 296 296 297 297 296 295 295 295 296 296 296 297 297 296 296 296 296 297 297 297 297 297 296 296 297 296 296 297 296 296 296 295 294 294 294 294 293 293 293 293
295 295 294 294 294 294 294 295 295 296 297 298 297 294 294 294 293 294 296 297 297 298 298 299 301 298 295 295 297 296 295 296 296 296 296 295 295 295 295 297 301 301 298 298 297 296 297 297 296 296 295 294 294 295 295 295 296 296 297 297 296 296 296 296 296 298 298 297 298 297 297 297 297 297 296 296 295 295 295 294 294 294 294 293 293 292 292
295 295 294 294 294 294 294 294 295 296 296 298 298 297 295 295 295 294 294 295 297 299 298 299 300 298 296 296 297 296 295 295 296 296 296 295 295 295 294 297 301 302 300 299 297 296 297 296 294 294 294 294 294 295 294 295 295 296 297 297 296 297 296 296 297 298 297 297 298 297 297 297 297 297 296 295 295 295 296 295 295 294 294 293 293 292 292
295 295 294 294 295 295 294 294 295 296 296 297 299 299 297 296 296 295 293 293 296 298 299 299 299 297 296 297 297 296 296 296 295 295 295 295 295 294 294 296 300 300 298 296 295 295 295 294 293 294 294 294 294 294 294 295 295 296 297 297 296 296 296 296 297 297 297 296 296 297 298 297 296 296 296 295 295 296 295 294 294 294 293 293 293 292 292
295 295 294 294 295 295 295 295 295 296 297 297 297 298 299 297 297 296 294 293 295 297 298 299 299 297 295 297 297 296 296 296 296 295 295 295 294 293 293 296 298 298 297 297 295 294 293 293 293 294 294 294 294 293 293 295 295 296 298 298 297 296 295 295 295 297 297 295 294 295 296 296 295 295 295 295 295 296 295 295 294 294 293 292 292 292 292
295 294 293 293 296 296 295 295 295 296 297 297 297 298 299 298 297 297 295 293 296 297 296 297 298 297 296 297 296 295 295 295 295 294 294 294 293 292 292 294 296 296 297 297 294 292 292 293 293 295 295 294 294 294 294 295 294 295 297 299 298 297 296 295 294 294 295 295 294 294 295 294 294 295 295 294 295 295 295 295 294 293 292 292 292 292 292
294 293 292 293 295 296 296 295 295 296 297 298 298 298 298 297 297 297 295 293 296 297 296 296 297 297 298 298 296 294 294 295 294 294 295 295 295 293 293 294 295 296 296 295 294 292 292 292 293 294 295 294 294 295 295 294 293 295 298 299 299 298 296 295 294 294 294 295 295 296 295 294 294 295 295 295 294 294 294 294 293 292 292 292 291 291 291
293 293 293 293 294 296 297 296 295 296 298 298 298 297 297 297 298 297 295 294 296 296 295 297 297 296 296 297 296 294 295 297 297 296 296 295 294 294 295 296 296 295 294 294 294 293 291 291 292 293 293 292 293 294 294 294 295 297 298 297 297 296 295 295 294 294 294 295 295 296 296 296 295 294 294 294 294 293 293 293 292 292 292 292 292 292 292
293 293 293 293 294 296 297 297 296 297 298 298 297 297 297 297 298 297 295 295 296 295 295 296 298 297 296 297 297 295 295 296 297 296 296 295 293 294 295 296 296 295 294 293 293 292 291 292 292 293 293 292 291 292 293 294 296 298 296 295 295 295 295 295 294 294 294 294 294 295 295 295 294 293 293 293 292 292 292 292 292 291 291 291 292 292 292
293 294 293 293 294 297 298 298 297 298 297 297 297 297 297 298 297 296 295 294 295 297 296 295 295 296 296 297 298 296 295 295 295 294 294 294 293 293 294 295 295 294 293 292 292 292 292 293 293 292 292 291 292 293 294 295 296 297 297 296 295 295 296 296 295 294 293 293 294 294 293 294 294 293 293 293 292 292 292 292 292 292 292 291 292 293 292
294 294 293 294 296 298 298 298 297 297 297 297 297 296 297 297 296 295 295 295 296 298 298 294 294 295 296 296 296 295 294 295 295 294 294 294 294 293 294 295 294 293 291 291 292 293 292 292 292 292 291 291 294 296 296 296 297 297 297 297 296 296 297 298 296 294 292 292 293 293 293 293 294 293 292 292 292 292 293 292 292 292 292 292 293 293 293
294 294 295 297 298 299 298 297 296 296 296 296 296 296 297 297 296 295 296 296 297 297 296 295 295 294 294 294 295 295 295 295 295 294 295 295 293 293 293 294 294 293 292 292 292 292 292 292 292 292 292 293 295 297 297 296 297 297 298 298 295 295 297 297 295 294 293 292 292 292 292 293 293 292 292 292 292 292 292 292 292 293 292 292 293 293 293
294 294 295 297 298 299 298 296 296 296 296 296 296 297 296 295 296 297 297 297 298 297 295 296 296 294 292 293 295 295 295 294 294 295 295 293 293 293 292 292 293 292 292 291 291 291 292 292 291 291 293 294 296 296 296 294 294 294 295 295 294 294 296 296 294 294 295 294 294 293 293 293 293 293 292 292 292 292 292 293 293 293 293 293 293 293 292
295 294 294 296 297 297 296 295 295 296 296 296 296 297 296 295 296 296 296 295 297 296 295 296 297 295 294 295 296 295 294 295 295 296 295 293 293 294 293 292 291 291 291 292 290 290 292 292 289 289 292 295 295 295 295 293 292 291 291 292 293 294 295 295 295 296 297 296 296 295 295 294 294 293 293 292 292 292 292 293 293 292 292 292 292 291 291
295 294 293 294 295 295 295 295 296 296 297 296 295 296 296 295 295 295 295 295 296 295 294 296 296 294 293 295 296 294 294 295 295 295 295 293 293 292 292 292 291 291 292 292 290 290 291 292 289 289 292 294 294 294 293 293 293 292 291 292 294 294 294 295 295 295 295 295 294 294 295 295 295 294 294 293 293 293 293 292 292 292 292 292 291 290 290
294 294 294 295 295 294 295 296 296 296 296 296 295 295 295 295 293 293 294 296 296 295 294 294 295 294 294 294 295 295 295 294 293 294 294 294 292 293 293 292 290 290 292 292 290 289 291 291 290 291 293 294 295 294 293 293 294 293 291 292 293 293 293 295 294 293 293 295 294 293 293 293 293 294 293 293 293 293 292 292 292 292 292 292 291 290 290
294 294 294 294 294 294 295 295 295 295 295 296 296 295 294 294 294 294 294 294 294 294 294 294 294 295 294 293 294 295 294 293 293 294 294 293 292 292 293 291 290 292 292 290 289 290 292 291 291 292 294 295 295 293 293 294 294 293 293 292 292 292 294 294 294 293 293 294 295 294 292 292 293 293 293 293 293 293 292 292 293 293 293 292 291 290 290
295 295 294 294 294 294 294 295 294 294 295 297 297 296 295 294 293 294 294 294 293 293 294 294 293 294 294 293 294 294 293 293 294 295 294 293 292 292 292 292 292 292 291 289 289 291 292 291 292 293 294 295 295 293 292 293 293 293 292 292 292 292 293 294 294 294 293 293 293 294 293 293 293 293 293 293 293 293 293 293 293 293 293 292 291 290 290
294 294 294 294 294 294 295 295 294 294 295 296 296 296 297 296 294 293 295 295 294 294 295 294 294 295 295 295 294 295 294 294 294 294 294 292 292 292 293 293 292 291 290 290 291 291 290 290 292 292 293 296 296 293 292 293 293 293 293 292 291 291 292 293 294 294 293 292 293 293 293 293 293 293 293 293 293 293 294 294 293 293 293 292 291 290 289
295 295 295 296 295 294 294 295 295 294 294 295 294 295 296 296 295 294 295 294 294 294 294 294 294 295 296 296 295 295 295 294 294 294 293 293 292 292 292 292 291 290 290 291 291 291 290 291 293 293 293 296 296 294 291 290 291 292 293 294 293 292 293 294 295 295 294 294 293 292 293 293 293 292 293 293 293 293 294 294 293 293 293 292 291 290 290
295 294 295 297 297 294 294 295 296 295 294 294 294 295 295 295 295 294 294 293 294 294 294 293 294 295 296 296 295 294 294 294 294 294 292 292 293 293 291 290 291 292 292 292 292 292 293 293 294 294 294 295 296 294 290 289 289 290 292 295 295 294 294 295 295 295 294 294 293 293 293 293 293 293 293 293 293 294 294 293 293 293 292 292 291 290 289
294 292 293 296 297 295 294 294 294 293 293 293 294 295 294 293 293 293 293 293 293 294 293 293 293 294 294 294 294 293 293 294 294 293 292 292 293 293 291 291 293 293 293 293 294 294 293 293 295 296 296 295 295 294 292 290 289 289 291 293 295 294 294 294 295 295 294 293 293 293 293 293 293 293 293 293 293 294 294 293 293 293 293 293 292 290 289
295 293 293 295 296 295 294 293 292 292 292 292 292 292 292 291 293 294 293 293 293 294 294 294 294 294 293 293 293 293 293 293 293 293 292 292 294 293 293 293 294 292 291 292 294 294 294 294 295 295 295 294 294 294 294 293 291 290 291 292 293 294 294 294 294 294 294 293 293 293 293 293 293 293 293 293 293 294 294 293 293 293 293 293 292 290 289
294 293 293 294 294 293 292 291 292 293 293 292 292 293 292 293 294 295 294 293 293 294 293 293 294 294 294 293 293 293 293 293 294 293 293 293 294 294 294 295 296 294 292 291 293 294 295 296 296 296 296 296 296 296 296 294 292 291 292 292 293 293 294 294 294 294 293 293 293 293 293 293 293 293 293 293 293 294 294 294 293 293 294 293 292 290 289
292 292 293 293 293 292 291 291 293 295 294 292 293 294 294 294 295 294 293 293 295 295 293 293 293 294 293 293 294 294 294 293 293 293 294 294 294 293 292 294 295 295 293 292 293 295 296 295 295 296 298 298 297 298 297 295 293 292 291 292 292 292 292 293 293 293 293 293 293 293 293 292 293 293 293 293 294 294 294 294 294 294 294 293 292 291 290
293 293 293 293 292 293 292 293 295 295 294 294 295 295 294 295 296 295 292 292 294 295 294 293 293 293 294 295 295 295 294 293 293 293 293 293 292 292 293 294 294 294 295 295 296 297 297 295 294 295 297 297 297 298 297 295 293 292 291 291 291 291 291 292 292 292 292 293 293 292 292 293 293 293 294 293 293 293 293 294 294 294 294 294 292 291 290
295 295 294 292 291 291 292 293 294 294 293 294 294 293 293 295 296 294 292 292 294 294 294 293 293 294 295 295 295 294 294 294 293 293 293 292 291 292 294 295 295 295 296 296 296 297 297 296 296 296 297 297 296 296 294 294 293 293 292 291 290 290 290 291 291 292 292 292 292 292 293 293 293 293 292 292 292 292 293 294 294 295 295 294 293 292 291
Wind_Speed
28 29 33 35 35 36 39 42 41 39 34 25 18 10 2 1 0 8 15 3 7 3 2 1 2 0 2 2 2 1 0 1 1 0 1 1 1 1 0 2 2 2 2 2 2 2 2 2 1 1 2 3 3 1 2 2 1 1 1 1 0 1 1 2 2 1 1 0 1 1 1 2 2 3 2 1 1 1 1 1 2 3 3 2 2 3 3
28 29 34 35 35 36 39 42 40 37 31 21 13 4 1 2 2 4 17 11 2 1 2 1 2 1 3 2 1 2 0 0 1 0 1 1 1 0 1 1 0 0 1 1 1 1 1 0 1 0 2 1 1 3 2 2 2 2 1 1 0 1 1 1 3 3 1 1 2 2 1 1 1 2 2 1 2 4 3 2 1 3 2 2 3 3 3
28 29 34 35 35 36 39 41 40 35 28 18 8 1 1 2 1 2 11 16 9 3 1 1 1 2 3 2 4 4 2 1 2 1 2 2 1 0 1 1 1 1 2 2 2 2 0 0 2 1 1 2 2 4 4 2 3 2 3 4 2 1 0 1 1 5 5 4 2 1 1 1 1 2 3 2 1 2 3 3 2 4 3 2 2 2 4
28 29 33 34 34 36 38 41 40 34 26 15 6 3 0 1 2 2 4 8 7 3 1 1 0 1 2 2 4 5 3 3 3 2 3 2 2 2 2 3 1 1 2 2 2 3 2 1 2 2 2 2 2 4 4 4 5 7 10 9 4 2 2 3 3 2 1 1 1 3 1 1 2 2 4 5 4 3 0 3 3 3 4 3 1 1 6
28 28 33 34 33 34 37 40 39 33 26 14 4 4 3 1 1 2 2 3 3 3 5 6 4 2 1 1 4 6 4 3 3 3 3 2 2 2 3 4 3 0 0 2 2 3 3 3 3 2 2 1 2 3 2 5 6 4 7 7 4 3 2 4 6 7 5 3 3 4 4 5 5 4 4 5 5 4 1 3 2 2 4 4 1 2 5
28 28 31 34 33 33 36 39 39 34 25 14 4 2 3 2 1 1 2 2 3 3 5 7 7 7 4 2 4 7 7 6 4 4 2 3 4 2 2 7 8 2 2 2 2 3 3 4 4 2 3 2 2 3 3 4 6 4 2 2 3 5 2 2 3 6 7 7 7 8 8 7 6 7 6 6 7 5 5 4 2 0 1 2 4 5 4
27 27 30 33 32 33 34 36 39 34 24 19 14 5 2 2 1 1 1 1 1 2 5 7 7 9 7 4 6 9 10 8 6 4 2 2 6 5 3 7 10 6 2 2 3 3 2 4 3 2 3 3 2 3 2 2 5 4 2 2 1 3 2 2 3 4 6 8 7 8 9 7 6 8 7 6 7 8 8 5 3 5 6 5 7 10 8
27 26 28 31 32 32 33 34 37 35 26 22 18 7 2 1 1 2 1 2 2 2 3 5 4 6 6 4 6 8 10 9 6 5 5 3 5 6 4 5 7 7 7 6 6 4 3 3 3 2 1 2 2 2 1 2 6 5 2 1 2 2 3 4 4 4 3 5 6 6 8 8 6 5 5 5 5 6 6 5 4 6 8 6 8 11 8
26 25 27 30 31 32 32 32 34 35 29 20 10 4 4 2 1 0 1 2 4 2 2 3 3 4 5 5 5 7 8 9 5 3 6 5 4 5 4 4 3 4 9 9 6 4 4 2 3 3 2 2 1 1 1 0 4 5 3 1 2 2 4 3 3 3 2 2 3 5 7 7 4 2 3 5 4 3 4 4 3 2 4 7 7 6 5
25 24 25 28 30 31 31 31 31 32 31 20 6 3 6 3 1 1 1 1 4 3 2 4 3 3 4 4 4 5 6 9 5 3 4 6 7 4 4 3 2 3 8 8 5 5 6 6 5 4 3 2 2 1 1 1 2 3 2 1 1 2 5 5 3 4 3 1 2 3 4 3 3 2 1 2 2 2 2 4 5 5 0 3 3 4 5
24 23 24 26 29 30 30 30 29 29 29 23 9 3 6 3 1 1 1 3 3 3 2 5 4 2 3 4 2 3 6 9 8 4 3 6 8 6 5 4 2 2 5 4 6 6 7 7 4 2 2 1 1 2 3 4 4 3 2 1 1 2 5 5 2 3 3 3 4 4 2 2 1 3 2 2 1 4 5 4 6 6 3 3 6 7 7
23 23 23 25 27 28 29 29 28 25 24 22 15 9 8 4 1 0 2 3 3 3 2 4 3 2 4 5 2 2 4 5 5 4 2 4 6 6 7 8 4 2 3 7 8 4 4 2 1 1 0 2 3 5 7 9 6 3 2 2 2 2 3 2 2 2 3 4 5 5 3 2 2 5 2 1 4 9 12 11 9 8 6 8 11 11 9
23 22 22 24 25 27 28 28 28 25 21 21 21 17 13 6 1 1 2 3 3 4 2 1 2 3 5 6 5 4 4 3 3 2 1 2 5 6 7 6 4 6 9 10 8 2 3 2 1 1 1 2 2 4 9 10 7 5 5 4 2 2 2 2 2 2 3 4 4 3 1 1 2 3 2 3 3 5 8 10 9 8 6 6 11 11 9
22 22 21 23 24 25 27 27 27 25 21 20 22 22 19 12 4 1 1 3 3 2 1 1 4 6 6 7 6 4 4 5 3 2 1 1 3 4 4 4 7 8 7 5 4 2 1 1 1 1 0 1 1 2 4 6 7 8 6 4 1 2 2 2 2 1 2 3 2 0 1 1 2 3 1 0 1 0 1 4 5 5 5 3 8 9 8
21 21 20 22 23 24 25 26 27 25 21 19 21 24 23 17 9 3 1 2 2 2 3 3 4 6 5 5 6 4 3 5 4 2 2 2 2 3 3 6 10 9 3 1 1 2 1 0 1 1 0 0 1 0 1 2 3 5 5 4 3 3 1 1 1 0 1 3 3 1 1 2 3 4 1 0 0 1 2 2 4 3 3 2 4 6 5
21 21 20 20 22 23 23 25 26 25 21 18 19 23 24 19 12 7 3 2 2 2 4 3 3 3 3 3 4 4 3 3 3 2 3 4 5 5 5 7 9 7 4 3 2 2 2 1 1 1 1 1 0 1 2 1 1 2 4 5 7 6 3 2 2 1 1 2 3 2 2 0 1 2 1 2 1 2 3 2 3 2 2 1 3 5 4
20 20 19 19 20 21 22 23 25 25 22 18 17 22 23 19 14 9 5 3 3 2 2 3 1 0 2 2 3 3 2 2 2 1 2 4 4 6 8 8 7 5 5 3 1 2 3 2 1 1 1 1 1 0 1 2 2 2 4 5 6 5 3 2 2 2 2 2 1 2 2 0 2 2 3 4 0 3 4 4 4 3 1 1 3 6 5
20 20 19 18 19 19 20 21 23 24 23 18 15 17 21 19 14 10 5 2 3 3 2 3 2 2 2 2 2 2 2 2 2 1 2 3 2 4 7 7 5 5 5 3 1 2 3 2 2 2 2 1 1 0 1 2 2 2 3 3 3 3 2 1 2 2 2 2 2 0 1 1 1 3 4 3 1 4 4 2 3 4 3 2 4 6 6
20 20 19 18 18 18 19 20 22 23 23 19 14 14 18 18 15 12 8 2 2 2 3 4 4 3 1 1 1 1 1 0 1 1 2 2 3 3 3 2 2 4 3 2 2 2 2 2 1 1 1 2 1 1 2 2 2 2 2 1 1 2 2 1 1 2 1 2 2 1 1 1 2 4 4 2 2 3 2 2 2 4 5 4 4 5 5
19 19 19 18 18 17 17 18 20 21 22 20 14 11 14 15 13 12 9 3 1 2 2 3 4 3 2 2 2 1 1 2 2 2 2 3 4 3 1 0 2 3 3 3 3 2 1 2 1 1 1 2 2 1 2 2 2 2 2 1 2 2 1 1 1 1 1 2 2 1 2 2 4 4 2 1 0 2 4 4 3 4 6 5 5 5 4
19 18 18 17 17 17 16 17 18 19 21 20 15 11 12 13 12 11 9 5 3 2 2 2 4 4 3 3 2 2 2 2 2 2 1 2 3 2 2 1 3 3 3 2 1 1 1 1 1 1 1 1 1 1 1 2 2 3 2 1 2 3 2 1 1 0 1 1 2 0 1 3 4 2 1 4 4 3 4 5 4 4 4 4 4 5 4
18 18 17 16 16 16 15 15 16 17 19 19 16 13 13 12 10 9 10 8 5 3 2 2 3 5 6 5 6 6 4 3 4 3 1 0 2 2 2 0 1 1 1 1 1 1 1 0 1 1 1 2 2 1 1 0 1 2 3 1 2 3 2 1 2 2 2 3 3 2 1 3 4 4 5 6 6 5 4 5 5 4 2 3 3 4 4
18 17 16 14 15 15 14 15 15 15 16 18 17 15 14 14 10 6 6 7 6 4 5 5 3 4 6 7 9 10 9 8 9 7 3 1 1 1 1 1 1 0 0 1 1 1 1 1 1 1 1 2 2 1 2 2 1 2 2 2 2 2 1 1 2 4 5 5 4 3 2 3 5 6 5 5 5 4 4 5 5 3 2 3 3 3 4
17 16 14 13 14 14 13 14 14 14 14 16 17 15 14 15 13 7 4 4 3 2 5 6 3 2 3 5 7 10 10 10 11 10 9 6 3 1 1 1 0 0 1 1 0 0 1 1 0 1 2 1 1 1 2 2 2 1 1 2 2 1 0 1 3 3 2 3 3 2 3 3 4 4 4 5 5 4 4 4 4 3 3 4 3 3 4
17 16 14 12 13 13 12 12 13 12 11 13 15 16 16 17 16 10 6 4 2 2 1 2 1 2 3 3 5 8 8 9 8 9 11 10 5 2 1 1 1 1 1 1 1 0 2 2 0 1 2 1 1 1 1 1 1 1 1 1 2 1 1 2 3 2 2 3 4 2 2 2 2 2 3 4 5 5 5 4 5 4 4 4 4 3 3
16 15 13 12 12 11 10 11 12 11 9 9 13 17 19 19 18 14 9 5 2 2 2 1 1 5 7 5 6 7 7 7 7 7 9 9 7 4 3 3 1 1 2 1 1 1 1 1 1 2 2 1 1 1 1 1 1 0 1 2 1 1 0 1 2 3 4 3 3 3 3 3 2 1 2 2 3 5 6 5 5 4 4 5 4 4 4
17 15 12 11 12 11 9 9 10 10 8 5 8 13 17 18 18 17 13 7 1 1 2 0 2 5 7 5 7 9 7 6 6 6 7 8 7 6 5 3 1 1 1 1 1 1 1 2 2 2 2 1 1 1 1 1 0 1 2 2 1 1 2 2 3 4 3 2 5 6 3 2 3 4 4 3 3 5 6 5 4 4 4 3 3 3 3
16 15 12 11 11 10 8 7 7 9 8 4 3 6 11 15 18 18 15 11 4 1 1 0 2 3 3 3 8 10 7 6 6 6 6 7 7 8 8 5 2 1 1 1 1 1 1 2 2 1 1 0 1 1 1 0 0 1 2 2 1 0 2 2 2 2 1 2 6 6 1 2 3 5 5 4 4 4 5 4 3 3 3 3 2 2 2
16 15 12 11 11 9 8 7 5 6 8 4 1 1 3 8 15 17 15 13 7 2 1 0 1 1 1 3 6 9 8 8 7 6 5 6 7 9 9 6 2 1 1 1 1 1 1 1 0 0 1 1 0 1 1 0 1 1 1 1 1 0 1 0 1 2 2 1 5 4 2 3 3 4 4 4 4 3 3 3 2 3 3 3 2 1 0
16 15 12 11 10 9 8 7 4 5 7 5 1 1 1 3 10 15 16 13 9 2 1 1 1 0 2 3 4 8 11 10 8 7 7 7 7 7 6 4 2 1 1 1 1 1 1 1 0 0 1 1 0 1 1 1 0 0 0 1 1 1 1 0 1 1 2 3 4 3 3 4 4 4 4 3 3 3 2 2 2 3 3 2 2 1 1
16 14 13 11 9 8 8 6 3 4 7 5 2 2 1 0 5 12 14 13 8 2 2 1 0 1 2 1 2 6 10 9 7 6 6 5 5 5 4 3 1 1 1 1 1 1 0 0 1 1 1 1 1 1 1 1 0 0 1 2 1 2 3 2 1 2 3 6 6 5 5 4 4 3 3 3 3 3 2 2 3 3 3 3 3 2 2
16 14 13 11 9 8 8 5 3 2 5 4 5 4 3 0 5 9 11 10 6 2 2 1 1 0 1 2 2 6 7 5 4 4 3 3 3 3 4 3 2 2 2 1 1 0 0 0 1 1 1 1 2 1 1 1 1 1 1 2 2 2 3 3 2 3 5 6 7 6 4 2 3 2 2 3 4 3 2 3 4 3 4 4 3 3 3
15 14 13 10 8 8 7 4 2 1 4 6 8 7 4 2 5 7 8 7 4 2 2 1 1 1 1 1 2 5 6 3 2 2 2 3 3 2 2 3 1 1 3 2 0 1 1 0 0 1 1 1 1 1 1 1 2 2 0 1 2 2 3 4 4 5 4 3 2 2 2 4 4 3 2 3 4 4 3 4 4 4 4 4 4 4 3
15 14 13 9 7 7 5 3 2 3 5 6 6 4 5 6 6 5 5 4 2 3 3 2 1 0 2 1 0 4 5 2 1 1 2 3 3 1 1 1 1 1 2 2 0 1 1 0 0 1 1 1 1 0 1 2 2 1 0 1 2 3 4 4 4 4 4 1 2 2 2 4 5 4 3 4 4 4 4 4 4 4 4 4 4 4 3
15 13 10 6 5 4 1 1 3 3 4 5 3 3 7 8 5 3 2 2 2 1 1 2 1 1 1 1 0 3 5 2 0 1 1 2 3 2 0 1 1 1 1 2 1 0 1 1 0 1 0 1 1 1 2 3 2 2 1 3 4 4 4 4 3 3 3 2 2 3 5 7 7 6 5 5 5 5 5 5 5 5 4 4 4 4 3
14 10 6 2 1 1 3 4 4 3 2 2 3 5 7 5 3 3 4 4 3 2 1 0 1 1 1 1 0 2 4 2 0 1 1 1 2 2 1 1 1 1 1 1 0 0 1 1 0 0 0 0 2 2 2 2 2 2 3 4 6 4 3 3 5 6 4 4 4 5 5 6 6 5 5 5 5 5 5 5 5 5 5 5 4 4 4
12 6 1 3 3 3 3 3 4 3 3 4 5 4 4 3 3 3 4 3 4 4 2 1 0 0 0 0 0 2 2 2 1 1 1 1 1 1 1 1 1 1 1 1 1 1 1 1 0 0 1 2 2 2 2 2 3 3 3 4 5 4 3 4 7 8 7 5 5 4 4 4 4 4 5 5 5 5 5 5 5 4 4 4 5 5 5
8 4 4 3 2 2 2 2 2 4 5 4 2 2 3 3 2 2 2 1 3 3 2 1 1 1 0 0 0 1 1 1 1 1 1 0 0 1 1 1 0 1 1 1 1 1 1 1 1 0 2 3 2 2 3 3 4 4 3 2 5 5 4 6 8 9 7 4 3 4 4 4 4 4 5 5 5 5 5 4 4 4 4 5 5 6 6
4 4 4 3 2 1 1 4 6 5 3 2 1 1 1 2 1 1 1 1 1 1 1 0 0 1 1 1 1 1 1 1 1 1 1 1 0 1 1 1 0 0 1 1 1 1 1 1 1 1 2 2 1 1 1 2 3 3 3 3 5 6 6 6 7 7 6 4 4 5 6 6 6 6 5 4 4 4 4 4 4 4 5 5 6 6 6
8 5 4 2 2 3 4 4 3 1 1 1 2 1 1 1 1 1 0 1 1 0 1 1 0 1 0 1 1 0 1 1 1 1 1 0 0 0 1 0 0 1 1 1 1 1 1 0 1 1 1 1 1 1 2 3 2 2 1 3 6 8 8 7 6 6 5 3 3 4 6 6 6 6 6 5 4 4 3 4 4 5 5 5 5 5 5
8 5 2 2 5 7 5 3 3 2 2 1 2 2 1 1 1 0 1 1 1 1 0 0 0 0 1 0 1 1 1 1 1 0 0 0 0 0 0 0 1 1 1 1 1 1 0 0 1 1 2 2 1 3 4 3 2 1 1 3 6 7 8 6 5 6 6 4 3 3 5 6 6 6 7 7 6 5 4 4 4 5 4 4 5 4 3
8 5 3 4 6 6 4 4 3 2 1 1 1 1 1 1 1 1 1 1 0 1 0 0 1 1 1 0 1 1 0 0 0 0 0 0 0 0 0 1 1 0 1 1 0 1 1 0 1 2 2 2 2 3 4 3 1 0 1 3 5 7 7 6 5 6 7 6 4 4 6 7 7 8 9 9 8 6 5 5 5 5 5 6 5 3 1
6 2 1 2 2 3 2 2 2 2 1 2 2 1 1 1 1 1 1 0 0 1 1 1 1 0 0 1 1 0 0 0 0 1 0 0 0 1 1 1 1 0 0 0 1 1 0 1 2 2 2 2 2 3 3 3 2 1 1 2 4 6 7 7 6 6 7 7 7 7 9 10 9 9 9 9 8 6 5 6 6 6 6 7 6 4 2
2 1 1 1 1 2 1 1 1 1 1 1 1 1 1 1 1 0 1 1 0 1 2 1 1 1 1 1 0 0 1 0 1 1 0 0 0 1 1 0 1 1 1 1 0 0 1 2 3 3 3 3 2 2 2 2 2 1 1 2 4 6 6 6 5 5 5 6 7 7 9 10 9 8 9 9 8 6 6 7 7 6 7 6 6 4 3
1 2 2 2 2 1 1 0 1 1 1 0 0 1 1 1 1 0 0 0 0 1 2 1 1 2 2 1 0 0 1 0 0 1 0 0 0 0 0 1 0 1 1 1 1 1 1 2 1 2 3 4 4 3 2 2 2 2 2 3 4 5 6 5 5 5 5 6 7 8 9 10 9 8 9 10 10 9 8 8 8 7 7 7 6 5 4
1 1 2 2 1 1 1 1 1 1 1 1 1 1 1 1 1 1 0 0 1 2 3 2 2 2 1 0 0 0 1 1 0 0 1 1 0 1 1 1 0 0 0 1 1 2 2 2 1 2 3 4 5 4 3 2 2 3 3 4 5 6 6 6 6 5 5 7 8 9 9 10 10 10 10 11 11 10 10 10 9 9 8 8 6 5 4
1 1 2 2 1 1 1 1 0 0 0 1 1 1 0 0 0 1 1 1 1 2 2 1 1 1 1 0 0 0 1 1 1 1 1 1 1 0 0 0 1 1 1 1 2 3 2 2 2 3 3 4 4 4 4 2 2 4 4 3 3 5 6 7 6 6 6 7 8 8 9 10 12 11 11 10 11 11 11 11 10 9 9 9 7 5 4
1 0 1 1 1 0 1 1 1 1 0 0 0 0 0 0 1 1 0 1 1 1 2 1 1 1 0 0 0 0 0 0 1 1 0 1 1 1 1 1 1 1 2 2 2 2 1 1 2 3 3 3 3 3 3 2 2 3 4 4 4 5 7 7 7 8 8 8 8 8 9 11 13 12 11 10 11 12 12 11 10 10 9 9 8 7 6
2 1 1 1 1 1 1 0 1 0 1 0 1 0 0 1 1 1 0 1 1 1 1 0 0 1 1 0 0 0 0 1 1 1 0 0 1 1 0 1 2 2 2 2 2 2 2 2 2 2 3 3 2 2 3 2 2 3 5 5 6 6 6 7 9 11 11 11 10 10 11 11 12 12 11 10 10 12 12 10 10 10 9 8 8 8 7
2 1 1 1 1 1 1 0 0 0 0 0 1 0 0 1 1 1 1 1 0 0 0 1 0 0 0 0 0 1 1 1 1 1 1 2 2 1 1 2 3 2 2 2 2 2 2 2 1 2 3 3 2 2 3 2 2 3 5 7 7 7 8 9 10 11 12 13 14 12 11 10 11 12 12 12 12 12 12 11 10 10 9 8 8 8 8
2 1 0 0 0 1 1 1 1 1 1 1 1 1 1 1 1 1 1 1 1 1 0 1 0 1 0 0 1 1 1 0 1 1 1 2 2 2 2 3 4 3 2 1 2 2 3 2 2 2 3 3 2 3 3 2 3 4 5 6 7 9 9 10 10 11 12 13 13 12 12 14 15 14 14 13 12 10 9 10 12 12 10 9 9 9 9
1 1 0 1 0 1 1 1 0 1 2 1 1 1 1 1 1 1 1 1 0 0 0 0 1 1 1 1 1 0 0 1 1 1 2 2 2 2 3 3 2 2 2 2 2 2 3 3 3 4 4 4 4 4 4 4 5 6 6 6 7 8 9 11 12 12 12 12 13 14 16 16 14 12 11 10 9 8 8 10 13 13 12 10 10 10 10
Wind_Direction
1 3 7 7 4 4 4 5 6 2 357 354 355 354 8 55 156 5 8 321 230 334 70 227 353 150 293 307 220 259 216 221 287 109 36 307 196 16 216 204 226 215 237 242 208 238 244 187 188 199 160 165 183 324 4 29 28 43 52 10 73 110 91 97 110 93 335 262 180 189 128 125 96 54 56 146 149 100 143 174 154 155 157 145 175 193 138
1 3 8 8 5 4 6 6 6 5 360 353 352 358 99 36 224 353 18 28 170 93 58 299 328 308 313 346 15 322 333 142 301 179 47 15 82 3 232 165 244 301 47 122 170 257 233 195 6 114 134 134 0 355 12 84 49 5 28 138 178 343 356 61 127 139 138 169 187 200 148 92 74 57 3 330 99 106 122 103 122 174 180 164 190 191 128
2 5 10 10 5 5 7 6 7 7 1 355 3 36 195 18 186 256 13 32 55 78 72 247 265 303 319 14 20 352 349 351 328 73 81 42 59 94 313 351 327 0 67 98 52 21 1 11 15 25 50 57 31 1 359 71 94 64 82 106 97 77 53 324 170 172 180 174 177 199 155 125 84 67 9 359 76 133 138 132 174 192 172 172 207 167 126
3 7 12 12 6 6 8 8 8 8 3 0 20 46 258 47 38 304 337 25 46 57 10 358 321 312 327 30 20 354 327 317 334 58 73 41 39 49 9 344 325 47 70 111 68 25 5 30 68 48 12 26 26 351 356 48 87 108 106 101 94 99 80 11 33 99 141 154 349 322 303 116 75 52 24 6 335 305 126 134 176 179 149 162 249 123 139
4 8 14 14 7 5 9 9 9 11 8 5 29 48 36 100 48 355 319 354 21 31 22 15 4 343 347 44 9 351 340 332 344 30 54 58 56 60 38 21 20 341 82 119 91 13 8 35 48 30 345 313 312 335 30 39 21 68 107 98 89 96 69 11 38 58 57 57 39 16 39 67 53 26 7 357 341 320 6 109 121 133 149 171 189 114 137
5 10 16 17 9 6 10 11 11 14 15 19 53 87 19 50 127 300 316 346 357 1 357 357 8 19 28 56 18 5 13 25 18 353 8 55 30 14 47 25 16 342 251 137 84 7 20 39 18 350 359 349 326 356 54 41 4 6 71 58 92 112 93 354 46 60 53 46 41 45 63 79 67 45 26 5 4 27 62 56 12 17 138 147 126 110 98
5 10 17 20 14 9 10 12 13 14 21 41 61 73 347 41 91 305 338 42 35 9 336 333 10 28 20 33 29 15 15 25 21 349 336 34 13 10 61 19 8 15 22 120 88 21 34 60 25 353 8 12 16 27 42 5 359 22 63 10 68 118 130 146 115 67 29 12 11 34 54 63 57 46 38 27 33 54 69 60 51 80 78 78 102 99 81
5 10 18 22 20 14 11 13 15 14 22 43 56 53 357 46 82 321 12 58 32 34 340 328 14 31 12 20 26 15 12 8 6 15 26 36 1 4 45 17 1 27 44 68 84 39 10 50 31 346 349 17 32 49 75 349 342 1 56 6 344 104 157 168 127 87 13 341 347 17 45 53 47 33 21 22 37 52 60 59 56 76 88 96 96 91 79
5 9 18 23 23 19 14 14 17 16 23 40 57 44 16 23 195 328 79 35 3 3 344 339 25 31 12 14 10 9 9 353 341 46 51 59 43 354 348 348 339 32 45 53 61 16 324 303 320 312 321 4 15 38 76 32 331 351 28 352 333 68 131 154 121 131 184 294 347 15 38 40 20 350 3 8 16 43 58 58 21 18 122 131 112 94 92
5 8 18 24 25 23 18 17 19 19 26 39 56 24 10 0 175 46 97 72 7 350 348 5 33 39 5 5 4 357 352 345 353 77 44 36 47 11 326 339 348 35 37 26 357 323 289 269 283 287 280 295 308 337 13 37 349 346 10 8 347 100 144 151 143 156 165 116 85 61 48 28 308 290 63 30 43 96 83 53 23 357 308 151 120 113 118
6 8 17 24 26 26 22 21 21 21 27 35 41 22 5 4 144 3 50 91 24 342 11 25 34 35 348 347 357 333 340 353 12 46 19 4 19 9 356 17 37 71 49 358 309 291 266 262 276 261 254 307 66 110 95 76 53 15 348 9 35 133 146 145 140 148 139 110 114 113 131 184 272 337 293 261 103 105 100 62 25 14 31 81 92 107 116
8 8 15 23 26 26 25 24 24 24 27 32 37 33 12 1 173 15 64 87 17 346 44 43 25 2 343 347 343 319 339 349 350 2 356 334 347 3 19 26 24 21 0 328 309 281 217 206 139 138 36 47 106 105 82 67 55 47 46 40 61 113 122 118 84 100 119 125 128 137 176 221 348 359 333 177 116 105 97 78 45 34 60 91 99 106 112
8 7 14 23 26 27 26 25 25 26 26 29 34 34 24 18 61 71 79 95 34 357 15 32 353 353 0 6 358 329 333 331 301 308 323 312 347 10 25 26 356 317 317 321 321 318 149 129 94 143 357 9 46 63 58 51 41 44 50 41 51 104 113 108 72 74 128 149 155 160 188 333 12 35 60 95 113 112 94 73 47 25 28 87 106 110 115
8 8 13 22 26 27 26 25 25 25 26 28 31 33 32 31 39 92 100 89 66 5 329 328 345 349 359 6 355 329 335 351 343 331 328 322 352 3 6 353 327 308 301 311 332 23 88 63 59 109 15 6 34 49 51 45 34 33 34 24 49 111 122 111 80 58 140 136 134 67 347 297 155 138 133 98 92 39 71 83 66 27 2 60 111 119 124
8 8 12 20 26 27 26 25 24 24 25 28 31 33 32 30 33 68 112 107 109 55 21 9 329 328 341 355 0 5 6 1 353 328 317 333 346 338 330 329 324 315 306 339 15 33 40 13 81 98 332 34 116 24 24 42 35 30 25 22 50 67 57 86 119 63 80 106 116 124 241 220 167 134 112 36 82 266 253 129 98 54 2 15 115 123 124
7 7 10 18 25 26 25 24 24 25 25 27 33 35 32 28 32 51 72 97 108 61 5 338 284 296 323 338 3 27 20 350 343 329 333 358 355 337 325 326 326 333 11 47 50 47 41 43 107 112 100 25 32 34 29 30 43 36 28 36 55 62 52 63 101 102 99 122 145 181 193 190 80 102 11 335 295 218 214 159 122 97 9 0 115 107 94
7 7 10 17 23 25 25 24 24 26 26 26 32 36 33 30 34 44 56 68 81 81 338 315 272 1 12 3 1 14 6 343 355 6 348 350 341 325 328 336 340 358 25 33 27 41 52 62 61 86 89 13 345 30 46 26 38 19 2 18 43 52 39 57 116 133 141 140 153 218 204 55 6 327 321 333 1 172 190 187 156 135 111 70 99 90 71
6 6 9 16 21 23 25 23 22 25 27 28 34 36 33 34 41 51 62 76 78 71 339 329 13 42 27 23 3 354 356 348 358 16 325 328 339 335 335 340 350 6 20 32 44 47 57 58 38 58 70 20 331 282 43 38 46 11 342 355 33 41 26 37 120 118 127 149 141 142 219 189 283 303 318 325 192 184 195 183 131 121 123 105 89 85 70
5 5 7 12 18 22 24 23 22 23 25 29 37 39 33 34 46 58 64 73 89 60 342 336 24 50 41 68 41 7 43 34 351 5 356 354 1 341 310 298 349 358 3 35 55 44 50 61 36 9 37 31 20 44 40 33 21 355 343 12 33 34 38 46 80 85 94 127 115 98 160 99 347 310 304 287 215 192 154 113 101 114 118 104 83 80 72
3 3 5 9 14 19 23 23 23 23 24 28 37 46 38 35 45 60 65 79 109 65 356 343 17 31 24 55 67 52 46 38 16 27 23 350 337 340 345 11 357 355 0 25 45 34 40 63 33 338 35 40 28 70 83 70 48 11 358 37 35 18 30 76 81 85 116 111 101 176 171 60 352 309 278 330 352 131 120 114 109 105 106 104 90 76 64
1 2 5 10 15 18 21 24 23 22 24 26 33 46 44 39 46 59 67 84 106 80 31 6 16 24 32 51 71 81 65 27 357 0 18 329 323 2 72 0 331 354 10 16 42 42 24 47 24 19 56 25 354 79 108 100 85 45 11 68 56 11 0 126 116 346 286 130 115 109 31 9 345 323 99 70 66 102 118 113 108 99 99 103 93 77 63
359 1 4 12 19 20 22 24 23 24 25 25 31 42 41 37 46 62 67 73 87 86 47 24 22 36 46 47 39 34 35 21 355 340 300 346 2 38 102 73 345 24 6 329 46 59 34 42 52 60 65 30 32 68 55 53 97 41 3 12 49 31 22 60 73 55 39 65 88 85 35 18 19 47 78 78 76 80 84 90 94 89 82 86 89 94 89
357 358 4 14 21 23 24 25 24 26 27 26 30 38 38 34 40 64 76 74 82 73 40 31 37 44 38 33 32 33 31 26 20 16 24 80 34 34 71 25 11 75 216 318 26 39 31 47 46 61 69 39 31 71 67 59 66 37 24 42 61 63 40 12 77 104 87 62 59 55 40 42 41 46 58 65 66 66 71 84 90 81 74 81 87 99 94
354 356 3 14 20 22 25 27 26 27 31 31 32 37 43 38 34 42 72 68 76 81 38 31 38 24 339 340 8 26 30 26 25 31 41 50 63 62 33 9 282 330 5 16 178 179 75 84 101 57 66 36 344 43 73 67 58 44 54 75 62 57 77 79 98 124 114 91 103 79 40 49 49 52 66 69 63 57 55 74 90 89 79 77 73 79 78
351 352 0 12 18 19 23 27 27 28 34 39 37 40 47 42 33 36 59 60 72 128 67 18 358 339 333 341 5 18 26 26 22 34 44 48 57 82 94 165 179 31 28 68 170 162 67 73 77 73 80 54 323 11 58 54 58 41 24 63 62 32 47 98 99 82 61 103 126 115 68 66 47 53 91 98 88 82 76 82 97 96 81 76 69 63 63
349 349 356 8 14 15 18 23 28 27 33 45 44 43 47 44 36 39 51 56 83 101 59 227 259 351 7 26 24 20 32 32 19 26 44 46 49 71 122 167 160 78 91 110 101 92 83 79 65 65 71 39 340 31 55 38 51 48 46 56 35 327 325 101 102 98 89 95 130 147 138 134 144 127 117 116 106 102 97 92 96 95 89 86 77 64 61
347 346 353 3 8 9 10 17 26 27 27 47 55 48 46 44 39 39 38 32 42 128 41 170 248 337 356 10 15 21 39 43 24 28 47 45 41 53 80 112 109 52 71 65 54 75 82 73 62 51 39 17 21 46 51 54 58 79 79 67 337 248 142 124 120 125 130 160 171 168 155 142 168 169 151 137 132 125 121 116 109 109 112 106 87 76 73
346 344 348 356 1 4 3 5 18 26 23 32 76 56 47 43 39 34 28 25 31 143 133 162 273 318 346 359 5 16 32 35 19 21 36 41 44 53 61 69 67 26 37 46 58 68 44 48 73 74 25 176 109 58 43 138 73 59 80 63 343 110 138 150 150 133 132 194 169 162 109 47 144 156 148 147 156 145 133 125 110 109 113 102 83 77 62
344 342 344 349 353 356 356 352 3 22 21 18 72 88 51 43 36 27 19 18 25 67 148 67 305 306 330 327 346 7 20 20 14 16 33 52 61 62 63 69 74 60 69 69 63 68 44 38 85 142 349 327 176 53 28 39 68 66 83 55 329 11 107 292 127 103 61 122 155 151 74 60 114 135 135 145 161 148 126 115 112 120 120 111 108 125 346
340 340 341 342 344 348 348 341 341 11 18 19 58 84 61 39 26 18 11 9 14 35 131 88 80 349 324 302 325 1 8 9 15 29 48 64 67 59 59 72 81 69 80 77 48 44 57 47 48 34 347 328 176 95 84 132 143 77 128 219 217 130 123 341 340 53 73 105 129 116 71 80 100 109 111 124 138 134 130 141 143 134 131 142 163 188 247
335 339 341 335 331 335 339 330 323 7 17 23 64 67 65 332 357 360 359 0 6 35 119 84 23 317 342 318 322 352 356 360 13 28 46 62 58 43 42 54 59 37 35 70 63 34 3 48 41 47 31 30 60 98 125 149 162 264 197 178 145 107 120 127 43 41 89 106 107 90 76 90 112 117 123 147 153 136 132 151 152 150 165 182 207 244 269
334 339 341 331 318 322 329 318 298 2 29 60 96 100 104 276 325 339 347 355 4 49 112 59 43 2 339 325 329 340 342 355 19 23 30 38 26 21 31 39 48 44 42 75 132 63 53 98 22 20 31 32 52 106 138 146 185 237 199 166 137 102 114 119 107 111 120 120 115 103 96 141 189 182 156 166 166 159 160 163 164 178 196 207 232 253 261
336 338 337 326 310 313 319 303 277 85 96 107 108 101 88 2 326 329 341 355 18 81 96 71 102 102 325 289 331 352 350 353 14 16 26 24 0 344 20 33 46 46 33 36 114 47 70 172 341 34 50 35 54 114 175 216 221 237 240 127 125 118 116 112 117 134 138 117 89 104 155 192 196 188 153 149 152 157 168 168 170 189 210 227 246 255 264
337 335 332 320 302 307 311 279 215 153 138 132 116 77 23 356 340 334 345 9 52 78 58 54 132 130 335 300 9 8 3 3 6 6 18 15 359 340 349 9 25 61 26 17 42 86 79 156 34 86 87 26 23 195 247 255 241 238 58 107 118 115 114 113 127 152 159 127 46 55 108 130 133 136 146 152 148 156 168 173 184 205 222 237 253 265 277
337 332 327 312 294 303 330 144 160 155 140 127 105 7 349 348 345 347 18 38 50 67 34 31 95 132 0 9 69 356 359 12 48 347 347 0 12 25 29 331 13 66 18 355 351 98 47 37 50 186 156 353 307 228 238 254 242 215 168 152 146 138 137 145 152 154 146 121 101 105 116 126 132 147 169 172 165 171 181 188 202 219 236 251 262 267 268
338 334 327 305 220 127 107 100 103 112 103 53 358 342 347 2 33 73 81 68 54 75 136 21 31 132 124 98 246 333 350 18 83 308 303 314 0 26 65 18 23 49 11 353 30 109 38 23 306 258 74 258 235 227 231 240 222 204 200 192 178 163 148 150 147 133 112 103 115 123 135 147 151 159 172 176 176 185 199 208 211 218 237 258 271 273 268
344 352 42 139 133 106 87 76 70 58 12 342 335 352 29 65 83 77 75 61 38 41 74 126 94 109 130 128 258 308 337 3 350 329 345 336 330 348 21 23 3 341 326 11 41 26 17 30 21 244 199 221 249 254 248 235 221 221 224 198 175 159 127 123 132 126 112 106 118 132 151 167 165 163 172 179 185 194 206 215 215 220 241 262 274 281 280
357 45 95 116 115 87 71 52 11 348 341 340 346 38 52 52 54 47 36 5 4 18 35 86 93 100 179 229 308 332 353 16 9 357 14 24 301 336 24 35 15 318 319 335 1 356 12 48 44 325 252 263 285 283 264 252 243 243 246 194 165 160 147 138 140 137 131 133 156 172 179 188 195 192 187 187 192 199 211 225 228 233 249 261 271 281 285
37 73 63 59 74 92 314 312 309 310 324 12 49 74 36 14 32 46 351 331 352 12 5 1 83 147 196 252 303 5 36 28 0 8 28 25 352 356 4 15 55 1 341 351 28 355 328 1 27 343 277 281 300 294 284 288 273 256 247 199 168 159 152 152 159 160 159 165 180 182 189 202 208 200 192 195 206 213 222 234 241 248 255 264 272 276 274
43 45 40 41 358 324 323 318 308 293 121 76 32 38 55 21 29 39 1 23 34 1 330 6 79 179 240 291 294 1 46 0 329 347 39 75 79 25 16 29 49 1 320 317 356 0 314 294 6 333 277 279 317 346 324 311 296 279 242 169 164 165 167 171 176 172 158 135 138 174 196 208 206 195 191 197 207 215 220 229 246 261 267 274 283 280 270
21 19 16 336 319 327 349 28 58 81 96 63 21 39 57 36 26 21 61 60 35 293 283 36 9 11 66 34 259 281 24 41 57 77 67 24 1 8 1 351 355 336 264 258 327 31 63 101 323 290 263 263 306 325 321 317 321 351 116 152 163 170 174 171 166 167 163 146 136 177 195 195 193 194 195 195 200 212 227 240 263 283 288 291 299 296 276
336 321 309 308 313 326 6 42 44 48 58 55 50 38 0 355 18 356 22 65 24 295 299 74 322 348 19 298 259 263 1 59 93 112 69 18 9 53 82 26 15 1 234 256 8 49 52 282 264 265 263 260 287 312 317 318 329 17 166 167 170 177 179 171 164 175 183 179 174 181 184 185 191 200 202 202 205 216 233 249 270 292 306 313 318 316 258
341 323 277 287 318 349 16 20 25 51 48 38 53 44 352 3 41 9 344 341 262 340 0 333 290 313 288 250 242 216 254 294 30 72 49 341 353 51 62 42 26 9 287 18 63 87 234 236 231 256 290 300 298 303 309 310 307 282 197 189 191 191 187 176 168 178 190 196 197 193 187 188 194 202 207 211 214 222 241 258 270 288 305 315 319 312 240
22 62 73 72 349 5 20 351 1 71 59 44 85 113 43 24 70 58 356 355 346 0 9 348 319 338 357 355 2 303 281 294 57 68 69 310 15 51 67 9 273 309 346 355 13 312 269 245 240 264 291 300 295 296 307 310 294 245 187 195 201 195 187 179 169 166 178 191 199 198 195 196 199 202 208 216 222 229 247 262 274 289 304 311 311 301 255
31 27 35 35 354 347 52 9 347 41 82 75 172 154 136 126 150 179 50 63 285 330 356 351 304 308 330 349 1 328 341 8 15 1 9 34 9 346 228 233 277 18 6 322 326 320 286 260 259 279 283 284 290 301 318 310 282 230 183 184 195 192 187 183 179 174 174 184 191 195 200 205 207 206 212 223 232 240 250 263 276 290 302 303 294 288 272
91 76 80 81 16 344 107 111 23 52 130 180 205 164 138 141 196 230 230 148 280 311 323 322 298 295 314 353 79 24 19 20 304 330 81 93 228 227 205 228 312 55 48 330 291 260 253 262 285 290 281 284 291 297 303 302 275 225 199 195 196 193 192 192 193 195 193 191 192 197 203 209 213 215 221 230 238 243 251 263 273 282 289 289 280 279 280
85 40 82 96 50 338 72 104 114 248 197 186 174 140 85 341 251 244 237 223 254 295 302 291 265 273 322 1 246 310 31 20 280 247 157 174 230 234 77 312 264 203 176 226 248 247 249 262 267 267 271 282 290 294 302 309 261 221 217 218 206 196 197 199 202 204 199 192 193 200 208 213 217 221 224 232 240 245 251 262 270 275 280 279 270 263 268
100 21 76 104 166 238 92 103 219 216 138 63 258 178 142 277 295 307 267 219 258 298 301 282 208 205 218 3 262 265 34 41 251 247 179 173 247 323 6 307 277 244 205 212 229 238 237 232 244 261 272 276 275 281 294 305 265 222 216 220 220 212 206 205 210 215 212 202 197 203 211 215 220 223 224 230 241 248 253 260 268 275 282 279 263 249 251
84 82 94 124 168 170 122 2 274 201 93 1 293 301 178 244 284 302 250 205 263 284 272 240 208 233 248 303 98 230 248 223 227 260 324 228 231 223 178 258 269 259 230 222 233 246 245 232 234 259 269 265 260 268 276 275 251 224 216 215 217 216 212 212 218 221 221 218 218 221 222 221 220 222 222 225 237 247 255 259 266 275 283 277 256 243 246
52 56 112 127 140 159 145 115 101 101 53 264 251 240 209 262 279 256 194 196 306 329 222 203 204 222 254 1 1 262 249 224 183 175 217 226 208 162 169 228 237 223 201 205 236 257 265 258 234 244 256 258 261 275 278 259 227 227 229 225 221 218 220 224 227 228 229 230 231 231 228 224 221 221 222 225 233 244 253 258 261 268 277 272 253 241 242
23 29 167 244 192 172 151 134 147 219 241 233 221 206 184 219 264 239 176 154 32 22 264 239 167 87 116 208 239 251 259 204 159 183 231 232 184 156 196 237 241 225 209 219 239 252 265 268 248 243 258 267 262 269 283 284 271 263 252 238 228 225 225 227 229 232 236 239 238 234 232 233 234 233 232 233 234 239 247 252 253 257 265 267 254 242 240
31 43 285 278 199 164 152 124 246 244 239 244 242 202 180 206 237 217 157 144 349 329 254 179 114 120 197 226 219 190 234 232 218 231 244 235 199 184 213 245 250 221 216 239 246 238 240 238 224 222 238 254 263 274 285 287 281 274 264 249 238 231 228 229 231 233 236 239 240 239 240 242 243 238 232 226 222 222 231 243 247 248 254 260 257 247 240